Regional Weather Roundup
Issued by NWS Green Bay, WI

Home | Current Version | Previous Version | Graphics & Text | Print | Product List | Glossary Off
Versions: 1 2 3 4 5 6 7 8 9 10 11 12 13 14 15 16 17 18 19 20 21 22 23 24 25 26 27 28 29 30 31 32 33 34 35 36 37 38 39 40 41 42 43 44 45 46 47 48 49 50

637
ASUS43 KGRB 221100
RWRGRB

NORTH-CENTRAL AND NORTHEAST WISCONSIN REGIONAL WEATHER ROUNDUP
NATIONAL WEATHER SERVICE GREEN BAY WI
600 AM CDT FRI MAY 22 2015

WIZ005-009-010>012-018-019-221200-
NORTH CENTRAL WISCONSIN

CITY           SKY/WX    TMP DP  RH WIND       PRES   REMARKS
IRONWOOD       CLEAR     30  30 100 CALM      30.15R
MANITOWISH WTR NOT AVBL
ARBOR VITAE    NOT AVBL
EAGLE RIVER    NOT AVBL
LAND O LAKES   NOT AVBL
RHINELANDER    CLEAR     32  29  88 CALM      30.17R
PHILLIPS       NOT AVBL
ANTIGO         NOT AVBL
TOMAHAWK       NOT AVBL
MERRILL        NOT AVBL
$$

WIZ013-073-221200-
NORTHEAST WISCONSIN

CITY           SKY/WX    TMP DP  RH WIND       PRES   REMARKS
IRON MOUNTAIN  CLEAR     30  24  78 CALM      30.16R
MARINETTE      CLEAR     34  27  75 CALM      30.18R
$$

WIZ017-030-035>037-045-221200-
CENTRAL WISCONSIN

CITY           SKY/WX    TMP DP  RH WIND       PRES   REMARKS
MEDFORD        NOT AVBL
WAUSAU         CLEAR     36  35  96 E3        30.17R
MOSINEE        CLEAR     37  36  93 E5        30.18R
MARSHFIELD     CLEAR     42  35  76 E3        30.17R
WISC RAPIDS    CLEAR     39  34  82 CALM      30.19R
STEVENS POINT  NOT AVBL
WAUPACA        NOT AVBL
SHAWANO        NOT AVBL
CLINTONVILLE   NOT AVBL
$$

WIZ038-039-048-051-221200-
FOX VALLEY

CITY           SKY/WX    TMP DP  RH WIND       PRES   REMARKS
NWS GREEN BAY  CLEAR     38  35  89 W3        30.18R
APPLETON       CLEAR     37  28  70 N6        30.17R
OSHKOSH        CLEAR     41  31  67 CALM      30.17R
FOND DU LAC    CLEAR     37  31  78 S3        30.17R
$$

WIZ022-050-052-221200-
EAST CENTRAL WISCONSIN

CITY           SKY/WX    TMP DP  RH WIND       PRES   REMARKS
STURGEON BAY   CLEAR     39  27  60 NW3       30.19R
MANITOWOC      NOT AVBL
SHEBOYGAN      CLEAR     38  32  79 NW3       30.17R
$$

LMZ563-521-522-541>543-221200-
LAKESHORE

STATION/POSITION TIME  TEMP    WIND        PRES    VSBY  WAVE
                       AIR SEA DIR/SP/G                  HT/PER
                 (UTC) (F)     (DEG/KT/KT) (MB)    (MI)  (FT/S)
SHEBOYGAN LKSHOR 1000          330/  6/  7 1021.4R
KEWAUNEE LKSHORE 1000          300/  3/  5 1020.3R
NORTHPORT PIER   1000   45     330/  8/ 10 1021.0R
N MID LAKE BUOY  0950   38 36  300/  6/  8 1021.0R         1/ 3
SISTER BAY LKSHO 1032   43      20/  6/  8   N/A
CHAMBERS ISLAND  1000   42     300/  5/  7 1021.3R
MENOMINEE LKSHOR 1000   41     290/  5/  6 1021.8R
$$



USA.gov is the U.S. government's official web portal to all federal, state and local government web resources and services.